Preview of NWS' New Version of Forecast
This preview is not operational and should not be used for support decisions.
Latest weather observations around

Missoula, Missoula International Airport (KMSO)

Using English Units (Switch to International System of Units)
Date/ Time (MDT) Wind (mph) Vis. (mi) Weather Sky Cond. Temp (°F) Rel. Humidity Wind Chill (°F) Heat Index (°F) Pressure Precip. (in)
Air Dwpt 6 hour Altimeter (inHg) Sea level (inHg) 1 hr 3 hr 6 hr
Max Min
Sep 23 10:53 Calm 10 Cloudy SCT047 OVC055 62 46     56%     30.08 30.05      
Sep 23 09:53 Calm 10 Mostly Cloudy FEW045 FEW065 BKN085 61 48     62%     30.06 30.04      
Sep 23 08:53 Calm 10 Cloudy FEW049 OVC060 58 50     75%     30.05 30.03      
Sep 23 07:53 ESE 3 10 Cloudy SCT050 BKN080 OVC095 56 48     75%     30.02 30      
Sep 23 06:53 Calm 10 Cloudy OVC050 56 48     75%     30 29.96      
Sep 23 05:53 S 3 10 Cloudy OVC080 56 47     72%     29.98 29.94      
Sep 23 04:53 Calm 10 Mostly Cloudy FEW049 SCT085 BKN120 55 46     72%     29.97 29.93      
Sep 23 03:53 NW 5 10 Partly Cloudy FEW048 SCT110 55 46     72%     29.96 29.92      
Sep 23 02:53 N 7 10 Cloudy FEW050 OVC100 56 46     69%     29.96 29.92      
Sep 23 01:53 Calm 10 Partly Cloudy SCT095 54 48     80%     29.95 29.91      
Sep 23 00:53 NNW 5 10 Mostly Cloudy FEW080 BKN120 55 48     77%     29.92 29.88      
Sep 22 23:53 Calm 10 Cloudy SCT080 OVC110 57 48     72%     29.9 29.87      
Sep 22 22:53 Calm 10 Cloudy OVC110 59 48     67%     29.88 29.85      
Sep 22 21:53 Calm 10 Mostly Clear FEW120 56 48     75%     29.87 29.85      
Sep 22 20:53 N 5 10 Clear CLR 58 47     67%     29.86 29.85      
Sep 22 19:53 NW 10 10 Clear CLR 61 50     67%     29.85 29.84      
Sep 22 18:53 N 3 10 Mostly Clear FEW095 69 47     45%     29.85 29.82      
Sep 22 17:53 WNW 5 10 Clear CLR 72 45     38%   71 29.85 29.81      
Sep 22 16:53 WNW 6 10 Clear CLR 74 45     36%   73 29.86 29.82      
Sep 22 15:53 ENE 6 10 Clear CLR 74 44     34%   73 29.87 29.82      
Sep 22 14:53 E 6 10 Clear CLR 72 43     35%   71 29.9 29.85      
Sep 22 13:53 ESE 8 10 Clear CLR 70 43     38%     29.93 29.89      
Sep 22 12:53   10 Clear CLR 67 44     44%     29.96 29.93      
Sep 22 11:53 SSE 7 10 Clear CLR 62 44     52%     29.99 29.96      
Sep 22 10:53 5 10 Clear CLR 58 44     60%     30.02 30      
Sep 22 09:53 Calm 10 Clear CLR 54 44     69%     30.03 30.02      
Sep 22 08:53 SSE 3 10 Clear CLR 50 43     77%     30.03 30.03      
Sep 22 07:53 Calm 10 Clear CLR 46 44     93%     30.03 30.03      
Sep 22 06:53 ENE 3 10 Partly Cloudy SCT065 48 43     83% 47   30.03 30.02      
Sep 22 05:53 SE 3 10 Cloudy OVC065 50 43     77%     30.03 30.01      
Sep 22 04:53 NNW 3 10 Partly Cloudy SCT065 49 43     80% 48   30.03 30.01      
Sep 22 03:53 Calm 10 Mostly Cloudy BKN060 55 44     66%     30.02 30      
Sep 22 02:53 ESE 3 10 Cloudy OVC060 55 45     69%     30.03 30.02      
Sep 22 01:53 Calm 10 Cloudy OVC060 54 45     72%     30.03 30.02      
Sep 22 00:53 Calm 10 Cloudy OVC055 55 44     66%     30.04 30.03      
Sep 21 23:53 NNW 5 10 Cloudy OVC055 56 43     62%     30.05 30.03      
Sep 21 22:53 NW 3 10 Cloudy OVC060 56 43     62%     30.05 30.03      
Sep 21 21:53 WNW 9 10 Cloudy OVC060 57 42     57%     30.05 30.04      
Sep 21 20:53 NW 5 10 Cloudy OVC050 57 42     57%     30.04 30.04      
Sep 21 19:53 W 8 10 Cloudy OVC060 58 41     53%     30.03 30.03      
Sep 21 18:53 W 11 10 Mostly Cloudy BKN065 61 40     46%     30.03 30.01      
Sep 21 17:53 W 11 10 Cloudy OVC070 62 40     44%     30.03 30.01     0
Sep 21 16:53 Calm 10 Cloudy BKN070 OVC120 62 40     44%     30.03 30.02      
Sep 21 15:53 Calm 10 Mostly Cloudy SCT060 BKN075 61 43     52%     30.05 30.03      
Sep 21 14:53 WNW 5 10 Cloudy BKN055 OVC070 59 43     55%     30.07 30.06   0  
Sep 21 13:53 3 10 Mostly Cloudy BKN065 59 45     60%     30.07 30.06 0    
Sep 21 12:53 Calm 10 Cloudy OVC070 59 44     58%     30.08 30.07      
Sep 21 11:53 Calm 10 Cloudy OVC075 56 45     67%     30.09 30.09     0
Sep 21 10:53 ESE 7 10 Cloudy OVC080 57 47     69%     30.11 30.1      
Sep 21 10:34 SE 3 10 Cloudy FEW011 OVC080 54 47     77%     30.11        
Sep 21 09:53 Calm 10 Cloudy OVC080 53 49     86%     30.11 30.11      
Sep 21 09:41 S 3 10 Cloudy FEW008 FEW045 OVC080 52 49     89%     30.11        
Sep 21 08:53 NNE 3 10 Cloudy OVC075 51 48     89%     30.11 30.11 0 0  
Sep 21 07:53 NE 3 10 Cloudy BKN040 OVC050 50 47     89%     30.09 30.09 0    
Sep 21 06:53 Calm 10 Light Rain BKN060 OVC070 50 46     86%     30.08 30.08 0    
Sep 21 05:53 Calm 10 Cloudy BKN045 OVC060 51 47     86%     30.07 30.07      
Sep 21 04:53 Calm 10 Cloudy OVC055 52 47     83%     30.07 30.07      
Sep 21 03:53 Calm 10 Cloudy OVC044 52 47     83%     30.06 30.05      
Sep 21 02:53 Calm 10 Cloudy SCT040 OVC065 51 48     89%     30.06 30.06      
Sep 21 01:53 Calm 10 Cloudy OVC060 51 47     86%     30.05 30.04      
Sep 21 00:53 Calm 10 Cloudy FEW044 SCT070 OVC080 52 48     86%     30.04 30.04      
Sep 20 23:53 Calm 10 Cloudy BKN041 OVC090 53 48     83%     30.04 30.04     0
Sep 20 22:53 ESE 5 10 Cloudy FEW080 OVC095 52 48     86%     30.04 30.04 0    
Sep 20 21:53 Calm 10 Cloudy SCT050 OVC060 54 46     74%     30.04 30.03      
Sep 20 20:53 Calm 10 Cloudy BKN050 OVC060 55 46     72%     30.02 30.03   0  
Sep 20 19:53 NNW 5 10 Cloudy OVC055 54 46     74%     30.01 30.02      
Sep 20 18:53 NW 7 10 Cloudy OVC060 55 46     72%     30 30.01 0    
Sep 20 17:53 N 7 10 Clear   55 47     74%     29.99 30 0   0
Sep 20 16:53 NNW 10 5 Rain BKN055 OVC070 54 47     77%     29.98 29.98 0    
Sep 20 15:53 NW 9 10 Clear   59 44     58%     29.96 29.95 0    
Sep 20 14:53   10 Cloudy OVC060 57 42     57%     29.95 29.94 0 0  
Sep 20 13:53 NW 7 10 Cloudy FEW029 SCT055 OVC080 60 44     55%     29.94 29.93 0    
Sep 20 13:43 W 6 8 Light Rain FEW027 BKN055 BKN075 57 45     64%     29.95   0    
Sep 20 12:53 Calm 9 Light Rain BKN065 OVC080 56 43     62%     29.96 29.96 0    
Sep 20 11:53 3 10 Cloudy FEW055 OVC075 55 43     64%     29.97 29.98      
Sep 20 10:53 Calm 10 Mostly Cloudy BKN075 54 44     69%     29.96 29.96      
Sep 20 09:53 Calm 10 Cloudy OVC070 51 45     79%     29.98 29.98      
May 14 10:53 S 3 10 Clear CLR 58 42     55%     30.13 30.11      
May 14 06:53 SSE 3 10 Clear CLR 42 37     82% 40   30.14 30.14      
May 12 22:53 Calm 10 Clear CLR 52 38     59%     29.97 29.97      
May 12 18:53 N 9 10 Clear CLR 67 38     34%     29.93 29.93      
May 11 17:53   10 Mostly Clear FEW060 55 44     66%     30.05 30.06     0
Jun 11 20:53   10 Clear   64 35     34%     29.82 29.8      
Jun 11 14:53 W 5 10 Clear CLR 65 28     25%     29.89 29.9      
Jun 10 12:13 5 6 Light Rain FEW035 BKN043 OVC055 52 41     66%     29.75   0    
Jun 10 08:53 S 7 10 Clear CLR 51 41     68%     29.75 29.74      
Jun 09 13:53 7 10 Light Rain FEW026 SCT037 BKN047 57 48     72%     29.8 29.79 0    
Jun 08 21:53   10 Mostly Clear FEW120 64 51     63%     29.75 29.7      
Jun 07 23:53 E 10 10 Clear CLR 70 54     57%     29.84 29.77      
Jun 07 09:53 Calm 10 Clear CLR 66 52     61%     29.99 29.94      
Jun 06 01:53 N 5 10 Clear CLR 47 41     80% 45   30.17 30.15